CS7ATL-11 Weather Reports


Display with metric or nautical units.
time (UTC)temp
F
wind
direction
speed
MPH
gust
MPH
rain 1hr
in
rain 24hr
in
rain mn
in
humidity
%
barometer
mb
20260503200003 59 327 3.0 6.0 0.00 0.00 0.00 100 1003.4
20260503195503 59 326 3.0 4.0 0.00 0.00 0.00 100 1003.4
20260503195003 59 326 0.0 6.0 0.00 0.00 0.00 100 1003.4
20260503194002 60 333 1.0 8.0 0.00 0.00 0.00 100 1003.4
20260503193503 60 315 1.0 9.0 0.00 0.00 0.00 100 1003.3
20260503193002 60 334 3.0 9.0 0.00 0.00 0.00 100 1003.4
20260503192003 60 332 2.0 9.0 0.00 0.00 0.00 100 1003.1
20260503191502 60 324 3.0 13.0 0.00 0.00 0.00 100 1003.1
20260503191003 61 317 2.0 13.0 0.00 0.00 0.00 100 1003.0
20260503190502 61 312 4.0 11.0 0.00 0.00 0.00 100 1003.0
20260503190003 61 327 1.0 9.0 0.00 0.00 0.00 100 1003.0
20260503185502 61 329 4.0 11.0 0.00 0.00 0.00 100 1003.0
20260503185003 62 319 4.0 11.0 0.00 0.00 0.00 100 1002.9
20260503184503 62 322 0.0 11.0 0.00 0.00 0.00 100 1002.8
20260503184002 62 327 1.0 11.0 0.00 0.00 0.00 100 1002.8
20260503183502 62 294 7.0 9.0 0.00 0.00 0.00 100 1002.8
20260503183002 62 298 3.0 8.0 0.00 0.00 0.00 100 1002.7
20260503182502 62 344 4.0 9.0 0.00 0.00 0.00 100 1002.7
20260503181002 63 309 1.0 9.0 0.00 0.00 0.00 100 1002.7
20260503180502 63 319 6.0 9.0 0.00 0.00 0.00 100 1002.7
20260503180003 63 312 3.0 9.0 0.00 0.00 0.00 100 1002.8
20260503175502 63 333 4.0 9.0 0.00 0.00 0.00 100 1002.7
20260503175002 64 324 5.0 9.0 0.00 0.00 0.00 100 1002.8
20260503174003 64 326 6.0 11.0 0.00 0.00 0.00 100 1002.7
20260503173505 64 292 5.0 12.0 0.00 0.00 0.00 100 1002.7
20260503173002 64 323 3.0 12.0 0.00 0.00 0.00 100 1002.7
20260503172502 65 290 7.0 11.0 0.00 0.00 0.00 100 1002.8
20260503171502 65 313 5.0 10.0 0.00 0.00 0.00 100 1002.8
20260503171003 65 348 5.0 10.0 0.00 0.00 0.00 100 1002.9
20260503170502 66 329 2.0 10.0 0.00 0.00 0.00 100 1002.9
20260503131002 64 229 0.0 13.0 0.00 0.00 0.00 100 1003.4
20260503130502 65 169 4.0 13.0 0.00 0.00 0.00 100 1003.5
20260503110459 63 235 3.0 7.0 0.00 0.00 0.00 100 1003.9
20260503081500 63 262 1.0 2.0 0.00 0.03 0.00 100 1003.6
20260503081000 63 271 1.0 3.0 0.00 0.03 0.00 100 1003.4
20260503080500 62 261 0.0 3.0 0.00 0.03 0.00 100 1003.5
20260503072502 58 329 0.0 1.0 0.00 0.03 0.00 100 1003.3
20260503072002 58 277 0.0 1.0 0.00 0.03 0.00 100 1003.4
20260503071503 57 277 0.0 1.0 0.00 0.03 0.00 100 1003.5
20260503071003 57 200 0.0 1.0 0.00 0.03 0.00 100 1003.4
20260503070502 56 355 0.0 0.0 0.00 0.03 0.00 100 1003.3
20260503054959 54 253 0.0 0.0 0.00 0.04 0.00 100 1003.3
20260503053959 54 253 0.0 0.0 0.00 0.04 0.00 100 1003.2
20260503053459 54 253 0.0 0.0 0.00 0.04 0.00 100 1003.1
20260503052959 54 253 0.0 0.0 0.00 0.04 0.00 100 1003.2
20260503052459 54 253 0.0 0.0 0.00 0.04 0.00 100 1003.2
20260503051959 54 253 0.0 0.0 0.00 0.04 0.00 100 1003.0
20260503051500 54 253 0.0 0.0 0.00 0.04 0.00 100 1003.0
20260503050959 55 253 0.0 0.0 0.00 0.04 0.00 100 1003.1
20260503050459 55 253 0.0 0.0 0.00 0.04 0.00 100 1003.1
20260503050003 54 253 0.0 0.0 0.00 0.04 0.00 100 1003.1
20260503045459 54 253 0.0 0.0 0.00 0.04 0.00 100 1003.1
20260503044959 54 253 0.0 0.0 0.00 0.04 0.00 100 1003.0
20260503044500 54 253 0.0 0.0 0.00 0.04 0.00 100 1003.0
20260503044000 54 253 0.0 0.0 0.00 0.04 0.00 100 1003.1
20260503043500 55 253 0.0 0.0 0.00 0.04 0.00 100 1003.0
20260503042959 55 253 0.0 0.0 0.00 0.04 0.00 100 1003.1
20260503042459 55 253 0.0 0.0 0.00 0.04 0.00 100 1003.0
20260503041959 55 253 0.0 0.0 0.00 0.04 0.00 100 1003.0
20260503040959 55 253 0.0 0.0 0.00 0.04 0.00 100 1003.1
20260503040459 55 253 0.0 0.0 0.00 0.04 0.00 100 1003.1
20260503040002 55 253 0.0 0.0 0.00 0.04 0.00 100 1003.0
20260503035501 55 253 0.0 0.0 0.00 0.04 0.00 100 1003.1
20260503035002 55 253 0.0 0.0 0.00 0.04 0.00 100 1003.1
20260503034502 55 253 0.0 0.0 0.00 0.04 0.00 100 1003.1
20260503034002 55 253 0.0 0.0 0.00 0.04 0.00 100 1003.2
20260503033503 55 253 0.0 0.0 0.00 0.04 0.00 100 1003.2
20260503033002 55 253 0.0 0.0 0.00 0.04 0.00 100 1003.1
20260503032500 56 253 0.0 0.0 0.00 0.04 0.00 100 1003.3
20260503032002 56 253 0.0 0.0 0.00 0.04 0.00 100 1003.3
20260503031502 56 253 0.0 0.0 0.00 0.04 0.00 100 1003.3
20260503030500 56 253 0.0 0.0 0.00 0.04 0.00 100 1003.3
20260503030003 56 253 0.0 0.0 0.00 0.04 0.00 100 1003.3
20260503025459 56 253 0.0 0.0 0.00 0.04 0.00 100 1003.4
20260503025000 56 253 0.0 0.0 0.00 0.04 0.00 100 1003.4
20260503024459 56 253 0.0 0.0 0.00 0.04 0.00 100 1003.3
20260503023959 56 253 0.0 0.0 0.00 0.04 0.00 100 1003.2
20260503023459 56 253 0.0 0.0 0.00 0.04 0.00 100 1003.3
20260503022959 56 253 0.0 0.0 0.00 0.04 0.00 100 1003.3
20260503022459 56 253 0.0 0.0 0.00 0.04 0.00 100 1003.4
20260503021959 56 252 0.0 0.0 0.00 0.04 0.00 100 1003.5
20260503021459 56 252 0.0 0.0 0.00 0.04 0.00 100 1003.5
20260503020959 56 252 0.0 0.0 0.00 0.04 0.00 100 1003.6
20260503020459 56 252 0.0 0.0 0.00 0.04 0.00 100 1003.6
20260503015959 56 252 0.0 0.0 0.00 0.04 0.00 100 1003.6
20260503015459 56 252 0.0 0.0 0.00 0.04 0.00 100 1003.5
20260503014500 57 252 0.0 1.0 0.00 0.04 0.00 100 1003.7
20260503013500 57 252 0.0 1.0 0.00 0.04 0.00 100 1003.7
20260503012959 57 252 0.0 1.0 0.00 0.04 0.00 100 1003.8
20260503012459 57 252 0.0 1.0 0.00 0.04 0.00 100 1004.0
20260503011459 57 251 0.0 0.0 0.00 0.04 0.00 100 1004.0
20260503010959 57 251 0.0 0.0 0.00 0.04 0.00 100 1004.1
20260503010459 57 251 0.0 0.0 0.00 0.04 0.00 100 1004.0
20260503005459 57 251 0.0 0.0 0.00 0.04 0.00 100 1004.1
20260503004959 57 251 0.0 1.0 0.00 0.04 0.00 100 1004.2
20260503004500 57 251 0.0 2.0 0.00 0.04 0.00 100 1004.1
20260503003459 57 251 0.0 0.0 0.00 0.04 0.00 100 1004.3
20260503002958 57 251 0.0 0.0 0.00 0.04 0.00 100 1004.5
20260503002459 57 251 0.0 0.0 0.00 0.04 0.00 100 1004.3
20260503002000 57 251 0.0 0.0 0.00 0.04 0.00 100 1004.3
20260503001459 57 251 0.0 1.0 0.00 0.04 0.00 100 1004.3
20260503000959 57 251 0.0 1.0 0.00 0.04 0.00 100 1004.5
20260503000459 57 251 0.0 1.0 0.00 0.04 0.00 100 1004.5
20260503000003 57 251 0.0 0.0 0.00 0.04 0.00 100 1004.5
20260502235000 58 251 0.0 0.0 0.00 0.04 0.00 100 1004.5
20260502234000 58 251 0.0 1.0 0.00 0.04 0.00 100 1004.6
20260502233500 58 251 0.0 1.0 0.00 0.04 0.00 100 1004.7
20260502233000 58 251 0.0 1.0 0.00 0.04 0.00 100 1004.6
20260502232500 58 251 0.0 2.0 0.00 0.04 0.00 100 1004.8
20260502232000 58 250 0.0 2.0 0.00 0.04 0.00 100 1004.7
20260502231000 58 248 0.0 2.0 0.00 0.04 0.00 100 1004.7
20260502230500 58 247 0.0 1.0 0.00 0.04 0.00 100 1004.8
20260502230007 58 248 0.0 1.0 0.00 0.04 0.00 100 1004.7
20260502225503 59 248 0.0 1.0 0.00 0.04 0.04 100 1004.7
20260502225002 59 248 0.0 1.0 0.00 0.04 0.04 100 1004.7
20260502224503 59 248 0.0 1.0 0.00 0.04 0.04 100 1004.7
20260502224002 59 249 0.0 0.0 0.00 0.04 0.04 100 1004.7
20260502223003 59 249 0.0 0.0 0.00 0.04 0.04 100 1004.8
20260502222502 59 249 0.0 0.0 0.00 0.04 0.04 100 1004.6
20260502222002 59 249 0.0 0.0 0.00 0.04 0.04 100 1004.9
20260502221503 59 249 0.0 0.0 0.00 0.04 0.04 100 1004.7
20260502221002 59 249 0.0 0.0 0.00 0.04 0.04 100 1004.8
20260502220503 59 249 0.0 0.0 0.00 0.04 0.04 100 1004.8
20260502220003 60 249 0.0 0.0 0.00 0.04 0.04 100 1004.9
20260502215502 60 249 0.0 0.0 0.00 0.04 0.04 100 1004.9
20260502215003 60 249 0.0 0.0 0.00 0.04 0.04 100 1004.8
20260502214502 60 249 0.0 1.0 0.00 0.04 0.04 100 1004.9
20260502213502 60 249 0.0 1.0 0.00 0.04 0.04 100 1004.8
20260502212002 61 249 0.0 1.0 0.00 0.04 0.04 100 1004.8
20260502211502 61 245 1.0 1.0 0.00 0.04 0.04 100 1004.8
20260502211003 61 241 0.0 2.0 0.00 0.04 0.04 100 1004.8
20260502210502 61 241 0.0 2.0 0.00 0.04 0.04 100 1004.8
20260502210002 61 240 0.0 2.0 0.00 0.04 0.04 100 1004.7
20260502205503 61 244 0.0 2.0 0.00 0.04 0.04 100 1004.5
20260502205003 61 244 1.0 2.0 0.00 0.04 0.04 100 1004.5
20260502204503 61 251 0.0 2.0 0.00 0.04 0.04 100 1004.6
20260502204002 61 247 0.0 1.0 0.00 0.04 0.04 100 1004.5
20260502203502 61 248 0.0 5.0 0.00 0.04 0.04 100 1004.4
20260502203002 61 256 1.0 3.0 0.00 0.04 0.04 100 1004.4
20260502202503 61 251 0.0 2.0 0.00 0.04 0.04 100 1004.4
20260502201503 61 244 1.0 2.0 0.00 0.04 0.04 100 1004.4
20260502200502 61 238 0.0 2.0 0.00 0.04 0.04 100 1004.2